sat.trackr.live / text

‹ back to catalog

STARLINK-36280

NORAD 67211 · 2025-304V

PAYLOAD ACTIVE UNKNOWN

§ Identity

Operator
Country
US
Launch date
2025-12-17
Launch site
AFWTR
Launch vehicle
Mass (kg)
RCS (m²)

Purposes: comms

External: N2YO · Heavens-Above · Gunter

§ Orbital elements

Epoch: 2026-09-19T09:53:55.381920Z

Period
96.11 min
Inclination
70.0019°
Eccentricity
0.0002708
Mean motion
14.98336018 rev/d
Perigee alt
570.2 km
Apogee alt
573.9 km
Semi-major
6,950.2 km
B*
2.3669e-4
RAAN
45.9673°
Arg perigee
270.2506°
Mean anomaly
89.8343°
Rev number
4,290

§ Raw data

STARLINK-362801 67211U 25304V   26262.41244655  .00002733  00000+0  23669-3 0  99932 67211  70.0019  45.9673 0002708 270.2506  89.8343 14.98336018 42902

JSON: /api/v1/satellites/67211 · /tle

For live sub-satellite position, see the globe view (requires WebGL).

§ Visibility from observer

Set your observer location to see the next 7 days of passes ≥ 10°. The values pass through the URL so the page stays shareable.

No JS? Fill the form by hand. The geolocation button needs JavaScript.